Location: Astronomy Club of Akron Observatory
(40.9700°N, 81.5606°W)
Time: 23:08:05
(UTC-05:00)

ATLAS 2AS CENTAUR R/B - Visible Passes

Search period start: 18 February 2018 00:00
Search period end: 28 February 2018 00:00
Orbit: 911 x 1301 km, 63.7° (Epoch: 18 February)

Date Brightness Start Highest point End Pass type
(mag) Time Alt. Az. Time Alt. Az. Time Alt. Az.
18 Feb 5.3 02:04:29 15° NE 02:04:29 15° NE 02:05:39 10° NE visible
18 Feb 4.2 03:51:55 32° N 03:51:55 32° N 03:56:44 10° NNE visible
18 Feb 4.7 05:39:21 13° NW 05:42:37 17° NNW 05:47:28 10° NNE visible
19 Feb 4.6 03:08:30 27° NNE 03:08:30 27° NNE 03:11:59 10° NNE visible
19 Feb 4.5 04:55:56 20° NW 04:56:54 20° NNW 05:02:37 10° NNE visible
19 Feb 5.0 06:47:52 10° NNW 06:51:32 13° N 06:55:11 10° NNE visible
20 Feb 5.0 02:25:04 20° NNE 02:25:04 20° NNE 02:27:10 10° NNE visible
20 Feb 4.4 04:12:30 25° NNW 04:12:30 25° NNW 04:17:51 10° NNE visible
20 Feb 4.9 06:01:48 10° NW 06:05:36 14° N 06:09:21 10° NNE visible
21 Feb 5.4 01:41:37 13° NE 01:41:37 13° NE 01:42:15 10° NE visible
21 Feb 4.5 03:29:01 26° N 03:29:01 26° N 03:33:08 10° NNE visible
21 Feb 4.8 05:16:27 12° NW 05:19:41 15° NNW 05:24:03 10° NNE visible
22 Feb 4.8 02:45:32 23° NNE 02:45:32 23° NNE 02:48:24 10° NNE visible
22 Feb 4.7 04:32:58 18° NNW 04:33:52 18° NNW 04:39:04 10° NNE visible
22 Feb 5.0 06:24:47 10° NNW 06:28:39 14° N 06:32:28 10° NE visible
23 Feb 5.2 02:02:02 17° NNE 02:02:02 17° NNE 02:03:38 10° NNE visible
23 Feb 4.6 03:49:27 21° NNW 03:49:27 21° NNW 03:54:16 10° NNE visible
23 Feb 5.0 05:39:04 10° NNW 05:42:43 13° N 05:46:20 10° NNE visible
24 Feb 5.5 01:18:29 11° NE 01:18:29 11° NE 01:18:47 10° NE visible
24 Feb 4.8 03:05:55 22° N 03:05:55 22° N 03:09:31 10° NNE visible
24 Feb 5.0 04:53:20 11° NW 04:56:46 14° N 05:00:44 10° NNE visible
25 Feb 5.0 02:22:21 20° NNE 02:22:21 20° NNE 02:24:48 10° NNE visible
25 Feb 4.9 04:09:46 16° NNW 04:10:54 16° NNW 04:15:35 10° NNE visible
25 Feb 5.1 06:01:32 10° NNW 06:05:45 15° NNE 06:09:53 10° NE visible
26 Feb 5.3 01:38:47 15° NNE 01:38:47 15° NNE 01:40:04 10° NNE visible
26 Feb 4.8 03:26:12 19° NNW 03:26:12 19° NNW 03:30:42 10° NNE visible
26 Feb 5.1 05:16:07 10° NNW 05:19:50 13° N 05:23:30 10° NNE visible
27 Feb 5.6 00:55:11 10° NNE 00:55:11 10° NNE 00:55:16 10° NNE visible
27 Feb 4.9 02:42:36 20° N 02:42:36 20° N 02:45:56 10° NNE visible
27 Feb 5.1 04:30:10 10° NNW 04:33:53 13° N 04:37:35 10° NNE visible
27 Feb 5.0 06:23:03 10° NNW 06:28:33 19° NNE 06:33:53 10° ENE visible
